* Astronomy

Members Login
Username 
 
Password 
    Remember Me  
Post Info TOPIC: Asteroid 2012 BE86


L

Posts: 131433
Date:
Asteroid 2012 BE86
Permalink  
 


Orbital elements:
2012 BE86                                                Earth MOID = 0.5025 AU
Epoch 2012 Mar. 14.0 TT = JDT 2456000.5                 MPC
M  45.20555              (2000.0)            P               Q
n   0.24503445     Peri.  255.71175     +0.71642575     -0.63841521
a   2.5292084      Node   142.70069     +0.66816717     +0.74388976
e   0.4927781      Incl.   27.66474     -0.20071567     +0.19762097
P   4.02           H   19.8           G   0.15           U   7

MPEC 2012 - B102



__________________
Page 1 of 1  sorted by
 
Quick Reply

Please log in to post quick replies.



Create your own FREE Forum
Report Abuse
Powered by ActiveBoard